Regional Weather Roundup
Issued by NWS

Home | Current Version | Previous Version | Text Only | Print | Product List | Glossary On
Versions: 1 2 3 4 5 6 7 8 9 10 11 12 13 14 15 16 17 18 19 20 21 22 23 24 25 26 27 28 29 30 31 32 33 34 35 36 37 38 39 40 41 42 43 44 45 46 47 48 49 50
000
ASUS45 KCYS 291010
RWRWY

WYOMING REGIONAL WEATHER ROUNDUP
NATIONAL WEATHER SERVICE CHEYENNE WY
400 AM MDT FRI MAY 29 2015

NOTE:  "FAIR" INDICATES FEW OR NO CLOUDS BELOW 12,000 FEET
WITH NO SIGNIFICANT WEATHER AND/OR OBSTRUCTIONS TO VISIBILITY.

WYZ001-291100-
YELLOWSTONE NATIONAL PARK

CITY           SKY/WX    TMP DP  RH WIND       PRES   REMARKS
LK YELLOWSTONE   N/A     31  30  96 CALM      30.33S
W YELLOWSTONE  NOT AVBL

$$
WYZ002>013-054>058-071-098>099-291100-
NORTHERN WYOMING

CITY           SKY/WX    TMP DP  RH WIND       PRES   REMARKS
JACKSON        CLOUDY    37  37 100 CALM      30.28S VSB<1/4
CODY           CLOUDY    48  45  87 N6        30.25S
GREYBULL       LGT RAIN  53  49  86 NW9       30.19R
WORLAND        CLOUDY    51  48  89 NW7       30.19S
SHERIDAN       RAIN      51  48  89 W12       30.21S
BUFFALO        LGT RAIN  48  44  86 NW16      30.20S
GILLETTE       LGT RAIN  50  49  96 N17G24    30.15R
HULETT         HVY RAIN  52  50  93 N12G18    30.14R
NEWCASTLE      FAIR      50  48  93 NW6       30.09F

$$
WYZ014>020-022>026-101>103-291100-
CENTRAL WYOMING

CITY           SKY/WX    TMP DP  RH WIND       PRES   REMARKS
BIG PINEY      FAIR      36  33  89 N3        30.27R
PINEDALE       FAIR      34  34 100 CALM      30.28S
DUBOIS         FAIR      36  34  93 NW7       30.27S WCI  30
LANDER         CLOUDY    47  44  90 NW6       30.22S
RIVERTON       LGT RAIN  48  45  89 SW6       30.24R
CASPER         LGT RAIN  46  44  93 NW10      30.19S
DOUGLAS        CLOUDY    52  47  83 NW10      30.16R

$$
WYZ021-027>030-104>119-291100-
SOUTHERN WYOMING

CITY           SKY/WX    TMP DP  RH WIND       PRES   REMARKS
EVANSTON       FAIR      42  35  76 S3        30.26S
KEMMERER       FAIR      36  34  93 N6        30.27S WCI  31
FORT BRIDGER   SUNNY     43  39  87 W6        30.29S
ROCK SPRINGS   FAIR      40  36  86 NE3       30.26S
DIXON          CLOUDY    45  42  91 NE5       30.26S
RAWLINS        CLOUDY    41  38  89 N15       30.24R
SARATOGA       CLOUDY    43  37  81 CALM      30.24S
LARAMIE        CLOUDY    43  38  82 E5        30.20S
CHEYENNE       FAIR      47  40  76 W7        30.16S
TORRINGTON     FAIR      51  48  89 NW12      30.09R
PINE BLUFFS    PTSUNNY   45  43  93 NW9       30.13S

$$


USA.gov is the U.S. government's official web portal to all federal, state and local government web resources and services.